Time,TemperatureF,DewpointF,PressureIn,WindDirection,WindDirectionDegrees,WindSpeedMPH,WindSpeedGustMPH,Humidity,HourlyPrecipIn,Conditions,Clouds,dailyrainin,SoftwareType,DateUTC
2013-04-01 00:03:00,47.3,46.5,29.73,West,273,3.0,8.0,97,0.00,,,0.00,Wunderground v.1.15,2013-04-01 04:03:00,
2013-04-01 00:08:00,47.3,46.5,29.72,NW,309,3.0,3.0,97,0.00,,,0.00,Wunderground v.1.15,2013-04-01 04:08:00,
2013-04-01 00:14:00,47.4,46.6,29.73,NW,309,3.0,4.0,97,0.00,,,0.00,Wunderground v.1.15,2013-04-01 04:14:00,
2013-04-01 00:18:00,47.5,46.7,29.73,WNW,282,4.0,4.0,97,0.00,,,0.00,Wunderground v.1.15,2013-04-01 04:18:00,
2013-04-01 00:23:00,47.6,46.8,29.73,NNW,335,4.0,8.0,97,0.00,,,0.00,Wunderground v.1.15,2013-04-01 04:23:00,
2013-04-01 00:28:00,47.6,46.8,29.73,NW,315,3.0,3.0,97,0.00,,,0.00,Wunderground v.1.15,2013-04-01 04:28:00,
2013-04-01 00:38:00,47.8,47.0,29.72,WSW,250,4.0,8.0,97,0.00,,,0.00,Wunderground v.1.15,2013-04-01 04:38:00,
2013-04-01 00:43:00,47.9,47.1,29.72,WSW,238,5.0,8.0,97,0.00,,,0.00,Wunderground v.1.15,2013-04-01 04:43:00,
2013-04-01 00:48:00,48.0,47.2,29.73,West,273,5.0,8.0,97,0.00,,,0.00,Wunderground v.1.15,2013-04-01 04:48:00,
2013-04-01 00:53:00,48.0,46.9,29.73,SW,230,5.0,8.0,96,0.00,,,0.00,Wunderground v.1.15,2013-04-01 04:53:00,
2013-04-01 00:58:00,48.0,46.9,29.73,WNW,297,6.0,6.0,96,0.00,,,0.00,Wunderground v.1.15,2013-04-01 04:58:00,
2013-04-01 01:03:00,48.0,46.9,29.73,WSW,248,6.0,7.0,96,0.00,,,0.00,Wunderground v.1.15,2013-04-01 05:03:00,
2013-04-01 01:08:00,48.0,46.9,29.74,WNW,292,6.0,8.0,96,0.00,,,0.00,Wunderground v.1.15,2013-04-01 05:08:00,
2013-04-01 01:13:00,48.0,46.9,29.74,WSW,244,5.0,8.0,96,0.00,,,0.00,Wunderground v.1.15,2013-04-01 05:13:00,
2013-04-01 01:18:00,48.0,46.9,29.74,West,259,5.0,8.0,96,0.00,,,0.00,Wunderground v.1.15,2013-04-01 05:18:00,
2013-04-01 01:23:00,48.1,46.7,29.74,West,281,6.0,8.0,95,0.00,,,0.00,Wunderground v.1.15,2013-04-01 05:23:00,
2013-04-01 01:28:00,48.1,46.7,29.74,WSW,257,6.0,8.0,95,0.00,,,0.00,Wunderground v.1.15,2013-04-01 05:28:00,
2013-04-01 01:33:00,48.1,46.7,29.74,WSW,253,5.0,8.0,95,0.00,,,0.00,Wunderground v.1.15,2013-04-01 05:33:00,
2013-04-01 01:43:00,48.2,46.8,29.75,WSW,252,4.0,8.0,95,0.00,,,0.00,Wunderground v.1.15,2013-04-01 05:43:00,
2013-04-01 01:48:00,48.2,46.8,29.75,SSW,206,4.0,8.0,95,0.00,,,0.00,Wunderground v.1.15,2013-04-01 05:48:00,
2013-04-01 01:53:00,48.2,46.6,29.75,WNW,284,4.0,8.0,94,0.00,,,0.00,Wunderground v.1.15,2013-04-01 05:53:00,
2013-04-01 01:59:00,48.2,46.6,29.75,West,265,4.0,4.0,94,0.00,,,0.00,Wunderground v.1.15,2013-04-01 05:59:00,
2013-04-01 02:08:00,48.3,46.7,29.75,WNW,300,4.0,4.0,94,0.00,,,0.00,Wunderground v.1.15,2013-04-01 06:08:00,
2013-04-01 02:13:00,48.3,46.7,29.75,WSW,249,3.0,4.0,94,0.00,,,0.00,Wunderground v.1.15,2013-04-01 06:13:00,
2013-04-01 02:23:00,48.0,46.1,29.75,NW,317,3.0,5.0,93,0.00,,,0.00,Wunderground v.1.15,2013-04-01 06:23:00,
2013-04-01 02:28:00,47.8,45.9,29.74,West,274,4.0,4.0,93,0.00,,,0.00,Wunderground v.1.15,2013-04-01 06:28:00,
2013-04-01 02:33:00,47.7,45.8,29.74,WSW,252,3.0,4.0,93,0.00,,,0.00,Wunderground v.1.15,2013-04-01 06:33:00,
2013-04-01 02:38:00,47.5,45.6,29.74,SW,229,3.0,5.0,93,0.00,,,0.00,Wunderground v.1.15,2013-04-01 06:38:00,
2013-04-01 02:48:00,47.2,45.3,29.74,West,280,2.0,2.0,93,0.00,,,0.00,Wunderground v.1.15,2013-04-01 06:48:00,
2013-04-01 02:53:00,47.2,45.0,29.75,SW,232,2.0,2.0,92,0.00,,,0.00,Wunderground v.1.15,2013-04-01 06:53:00,
2013-04-01 02:58:00,47.1,44.9,29.75,WSW,238,2.0,3.0,92,0.00,,,0.00,Wunderground v.1.15,2013-04-01 06:58:00,
2013-04-01 03:03:00,47.0,45.1,29.75,West,265,2.0,3.0,93,0.00,,,0.00,Wunderground v.1.15,2013-04-01 07:03:00,
2013-04-01 03:08:00,46.8,44.9,29.75,SW,233,2.0,2.0,93,0.00,,,0.00,Wunderground v.1.15,2013-04-01 07:08:00,
2013-04-01 03:13:00,46.7,44.8,29.75,SW,217,1.0,3.0,93,0.00,,,0.00,Wunderground v.1.15,2013-04-01 07:13:00,
2013-04-01 03:18:00,46.7,44.8,29.75,West,269,1.0,13.0,93,0.00,,,0.00,Wunderground v.1.15,2013-04-01 07:18:00,
2013-04-01 03:23:00,46.6,44.7,29.75,West,273,2.0,13.0,93,0.00,,,0.00,Wunderground v.1.15,2013-04-01 07:23:00,
2013-04-01 03:28:00,46.5,44.6,29.76,West,273,1.0,13.0,93,0.00,,,0.00,Wunderground v.1.15,2013-04-01 07:28:00,
2013-04-01 03:33:00,46.3,44.4,29.76,West,273,1.0,13.0,93,0.00,,,0.00,Wunderground v.1.15,2013-04-01 07:33:00,
2013-04-01 03:38:00,46.1,44.2,29.76,West,273,1.0,1.0,93,0.00,,,0.00,Wunderground v.1.15,2013-04-01 07:38:00,
2013-04-01 03:43:00,45.9,44.0,29.76,West,273,1.0,13.0,93,0.00,,,0.00,Wunderground v.1.15,2013-04-01 07:43:00,
2013-04-01 03:53:00,45.6,43.7,29.76,West,278,1.0,13.0,93,0.00,,,0.00,Wunderground v.1.15,2013-04-01 07:53:00,
2013-04-01 03:58:00,45.4,43.8,29.76,West,278,1.0,1.0,94,0.00,,,0.00,Wunderground v.1.15,2013-04-01 07:58:00,
2013-04-01 04:03:00,45.3,43.7,29.76,West,278,0.0,13.0,94,0.00,,,0.00,Wunderground v.1.15,2013-04-01 08:03:00,
2013-04-01 04:08:00,45.2,43.6,29.76,West,264,1.0,1.0,94,0.00,,,0.00,Wunderground v.1.15,2013-04-01 08:08:00,
2013-04-01 04:13:00,45.1,43.5,29.76,West,264,1.0,2.0,94,0.00,,,0.00,Wunderground v.1.15,2013-04-01 08:13:00,
2013-04-01 04:18:00,45.1,43.5,29.76,West,264,1.0,13.0,94,0.00,,,0.00,Wunderground v.1.15,2013-04-01 08:18:00,
2013-04-01 04:23:00,45.0,43.4,29.76,West,264,0.0,13.0,94,0.00,,,0.00,Wunderground v.1.15,2013-04-01 08:23:00,
2013-04-01 04:28:00,44.8,43.2,29.76,West,264,0.0,13.0,94,0.00,,,0.00,Wunderground v.1.15,2013-04-01 08:28:00,
2013-04-01 04:33:00,44.7,43.1,29.76,West,264,1.0,13.0,94,0.00,,,0.00,Wunderground v.1.15,2013-04-01 08:33:00,
2013-04-01 04:38:00,44.6,43.0,29.76,West,264,0.0,13.0,94,0.00,,,0.00,Wunderground v.1.15,2013-04-01 08:38:00,
2013-04-01 04:43:00,44.4,42.8,29.76,West,264,0.0,13.0,94,0.00,,,0.00,Wunderground v.1.15,2013-04-01 08:43:00,
2013-04-01 04:48:00,44.2,42.6,29.76,West,264,0.0,13.0,94,0.00,,,0.00,Wunderground v.1.15,2013-04-01 08:48:00,
2013-04-01 04:58:00,43.8,42.5,29.77,West,264,0.0,13.0,95,0.00,,,0.00,Wunderground v.1.15,2013-04-01 08:58:00,
2013-04-01 05:03:00,43.5,41.9,29.77,West,264,0.0,13.0,94,0.00,,,0.00,Wunderground v.1.15,2013-04-01 09:03:00,
2013-04-01 05:08:00,43.2,41.6,29.77,West,264,0.0,13.0,94,0.00,,,0.00,Wunderground v.1.15,2013-04-01 09:08:00,
2013-04-01 05:13:00,43.2,41.9,29.77,West,264,0.0,13.0,95,0.00,,,0.00,Wunderground v.1.15,2013-04-01 09:13:00,
2013-04-01 05:18:00,43.2,41.9,29.76,West,264,0.0,13.0,95,0.00,,,0.00,Wunderground v.1.15,2013-04-01 09:18:00,
2013-04-01 05:23:00,43.2,41.9,29.76,SSW,197,0.0,13.0,95,0.00,,,0.00,Wunderground v.1.15,2013-04-01 09:23:00,
2013-04-01 05:28:00,43.2,41.9,29.77,SSW,197,1.0,1.0,95,0.00,,,0.00,Wunderground v.1.15,2013-04-01 09:28:00,
2013-04-01 05:33:00,43.2,41.9,29.77,SSW,197,1.0,13.0,95,0.00,,,0.00,Wunderground v.1.15,2013-04-01 09:33:00,
2013-04-01 05:38:00,43.2,41.9,29.77,SSW,197,0.0,13.0,95,0.00,,,0.00,Wunderground v.1.15,2013-04-01 09:38:00,
2013-04-01 05:43:00,43.2,42.1,29.77,SSW,197,0.0,13.0,96,0.00,,,0.00,Wunderground v.1.15,2013-04-01 09:43:00,
2013-04-01 05:49:00,43.1,42.0,29.77,SSW,197,0.0,13.0,96,0.00,,,0.00,Wunderground v.1.15,2013-04-01 09:49:00,
2013-04-01 05:58:00,43.1,42.0,29.77,WSW,240,0.0,13.0,96,0.00,,,0.00,Wunderground v.1.15,2013-04-01 09:58:00,
2013-04-01 06:04:00,43.0,41.9,29.77,WSW,240,0.0,13.0,96,0.00,,,0.00,Wunderground v.1.15,2013-04-01 10:04:00,
2013-04-01 06:09:00,42.7,41.4,29.77,WSW,240,0.0,13.0,95,0.00,,,0.00,Wunderground v.1.15,2013-04-01 10:09:00,
2013-04-01 06:14:00,42.5,41.4,29.77,WSW,240,0.0,13.0,96,0.00,,,0.00,Wunderground v.1.15,2013-04-01 10:14:00,
2013-04-01 06:19:00,42.5,41.4,29.77,WSW,240,0.0,13.0,96,0.00,,,0.00,Wunderground v.1.15,2013-04-01 10:19:00,
2013-04-01 06:28:00,42.1,40.8,29.77,WSW,240,0.0,13.0,95,0.00,,,0.00,Wunderground v.1.15,2013-04-01 10:28:00,
2013-04-01 06:33:00,41.8,40.7,29.76,WSW,240,0.0,13.0,96,0.00,,,0.00,Wunderground v.1.15,2013-04-01 10:33:00,
2013-04-01 06:43:00,42.0,40.9,29.76,WSW,240,0.0,13.0,96,0.00,,,0.00,Wunderground v.1.15,2013-04-01 10:43:00,
2013-04-01 06:48:00,41.9,40.8,29.76,WSW,240,0.0,13.0,96,0.00,,,0.00,Wunderground v.1.15,2013-04-01 10:48:00,
2013-04-01 06:53:00,41.9,40.8,29.76,WSW,240,0.0,13.0,96,0.00,,,0.00,Wunderground v.1.15,2013-04-01 10:53:00,
2013-04-01 06:58:00,41.8,40.7,29.76,WSW,240,0.0,13.0,96,0.00,,,0.00,Wunderground v.1.15,2013-04-01 10:58:00,
2013-04-01 07:03:00,41.8,40.7,29.76,WSW,240,0.0,13.0,96,0.00,,,0.00,Wunderground v.1.15,2013-04-01 11:03:00,
2013-04-01 07:08:00,41.9,40.8,29.76,WSW,240,0.0,13.0,96,0.00,,,0.00,Wunderground v.1.15,2013-04-01 11:08:00,
2013-04-01 07:13:00,42.1,41.0,29.76,WSW,239,1.0,13.0,96,0.00,,,0.00,Wunderground v.1.15,2013-04-01 11:13:00,
2013-04-01 07:18:00,42.3,41.2,29.76,SW,223,1.0,13.0,96,0.00,,,0.00,Wunderground v.1.15,2013-04-01 11:18:00,
2013-04-01 07:23:00,42.7,41.9,29.76,West,266,1.0,13.0,97,0.00,,,0.00,Wunderground v.1.15,2013-04-01 11:23:00,
2013-04-01 07:28:00,42.9,42.1,29.76,West,266,1.0,1.0,97,0.00,,,0.00,Wunderground v.1.15,2013-04-01 11:28:00,
2013-04-01 07:33:00,43.1,42.3,29.77,SW,228,1.0,2.0,97,0.00,,,0.00,Wunderground v.1.15,2013-04-01 11:33:00,
2013-04-01 07:43:00,43.8,43.0,29.76,WSW,249,3.0,13.0,97,0.00,,,0.00,Wunderground v.1.15,2013-04-01 11:43:00,
2013-04-01 07:48:00,44.0,43.2,29.77,West,274,2.0,2.0,97,0.00,,,0.00,Wunderground v.1.15,2013-04-01 11:48:00,
2013-04-01 07:58:00,44.4,43.6,29.77,WSW,254,3.0,13.0,97,0.00,,,0.00,Wunderground v.1.15,2013-04-01 11:58:00,
2013-04-01 08:03:00,44.5,43.7,29.77,WSW,250,3.0,13.0,97,0.00,,,0.00,Wunderground v.1.15,2013-04-01 12:03:00,
2013-04-01 08:08:00,44.8,44.0,29.77,West,265,3.0,13.0,97,0.00,,,0.00,Wunderground v.1.15,2013-04-01 12:08:00,
2013-04-01 08:13:00,45.0,44.2,29.77,West,267,3.0,13.0,97,0.00,,,0.00,Wunderground v.1.15,2013-04-01 12:13:00,
2013-04-01 08:18:00,45.3,44.5,29.77,WSW,250,3.0,13.0,97,0.00,,,0.00,Wunderground v.1.15,2013-04-01 12:18:00,
2013-04-01 08:23:00,45.7,44.9,29.77,West,281,2.0,13.0,97,0.00,,,0.00,Wunderground v.1.15,2013-04-01 12:23:00,
2013-04-01 08:28:00,46.1,45.3,29.77,NW,305,2.0,13.0,97,0.00,,,0.00,Wunderground v.1.15,2013-04-01 12:28:00,
2013-04-01 08:33:00,46.5,45.7,29.76,WSW,243,2.0,13.0,97,0.00,,,0.00,Wunderground v.1.15,2013-04-01 12:33:00,
2013-04-01 08:38:00,46.8,46.0,29.76,West,276,2.0,13.0,97,0.00,,,0.00,Wunderground v.1.15,2013-04-01 12:38:00,
2013-04-01 08:43:00,47.2,46.4,29.76,WSW,252,2.0,13.0,97,0.00,,,0.00,Wunderground v.1.15,2013-04-01 12:43:00,
2013-04-01 08:48:00,47.7,46.9,29.76,West,265,3.0,13.0,97,0.00,,,0.00,Wunderground v.1.15,2013-04-01 12:48:00,
2013-04-01 08:53:00,48.0,47.2,29.76,West,262,3.0,13.0,97,0.00,,,0.00,Wunderground v.1.15,2013-04-01 12:53:00,
2013-04-01 09:03:00,48.7,47.3,29.76,SW,233,4.0,6.0,95,0.00,,,0.00,Wunderground v.1.15,2013-04-01 13:03:00,
2013-04-01 09:13:00,49.6,47.4,29.76,NNW,327,4.0,13.0,92,0.00,,,0.00,Wunderground v.1.15,2013-04-01 13:13:00,
2013-04-01 09:18:00,50.0,47.2,29.76,WNW,288,4.0,13.0,90,0.00,,,0.00,Wunderground v.1.15,2013-04-01 13:18:00,
2013-04-01 09:23:00,50.5,47.4,29.76,NW,307,4.0,13.0,89,0.00,,,0.00,Wunderground v.1.15,2013-04-01 13:23:00,
2013-04-01 09:28:00,51.2,47.5,29.76,West,270,4.0,13.0,87,0.00,,,0.00,Wunderground v.1.15,2013-04-01 13:28:00,
2013-04-01 09:33:00,51.9,47.5,29.76,West,279,4.0,13.0,85,0.00,,,0.00,Wunderground v.1.15,2013-04-01 13:33:00,
2013-04-01 09:38:00,52.4,47.4,29.76,WSW,252,5.0,5.0,83,0.00,,,0.00,Wunderground v.1.15,2013-04-01 13:38:00,
2013-04-01 09:43:00,53.0,47.3,29.75,NW,320,5.0,13.0,81,0.00,,,0.00,Wunderground v.1.15,2013-04-01 13:43:00,
2013-04-01 09:48:00,53.6,47.2,29.76,West,277,4.0,4.0,79,0.00,,,0.00,Wunderground v.1.15,2013-04-01 13:48:00,
2013-04-01 09:53:00,54.4,48.0,29.76,West,265,3.0,13.0,79,0.00,,,0.00,Wunderground v.1.15,2013-04-01 13:53:00,
2013-04-01 09:58:00,55.3,47.9,29.76,NW,310,3.0,13.0,76,0.00,,,0.00,Wunderground v.1.15,2013-04-01 13:58:00,
2013-04-01 10:08:00,55.9,47.4,29.75,SW,225,5.0,13.0,73,0.00,,,0.00,Wunderground v.1.15,2013-04-01 14:08:00,
2013-04-01 10:13:00,56.5,47.6,29.75,West,281,4.0,13.0,72,0.00,,,0.00,Wunderground v.1.15,2013-04-01 14:13:00,
2013-04-01 10:18:00,57.1,48.2,29.75,WNW,286,3.0,13.0,72,0.00,,,0.00,Wunderground v.1.15,2013-04-01 14:18:00,
2013-04-01 10:23:00,57.5,46.6,29.75,SW,228,4.0,13.0,67,0.00,,,0.00,Wunderground v.1.15,2013-04-01 14:23:00,
2013-04-01 10:28:00,57.9,47.4,29.74,WSW,239,5.0,13.0,68,0.00,,,0.00,Wunderground v.1.15,2013-04-01 14:28:00,
2013-04-01 10:33:00,58.6,47.3,29.74,SW,216,4.0,13.0,66,0.00,,,0.00,Wunderground v.1.15,2013-04-01 14:33:00,
2013-04-01 10:38:00,58.7,47.4,29.74,WSW,249,5.0,5.0,66,0.00,,,0.00,Wunderground v.1.15,2013-04-01 14:38:00,
2013-04-01 10:43:00,58.9,46.7,29.74,SW,224,6.0,11.0,64,0.00,,,0.00,Wunderground v.1.15,2013-04-01 14:43:00,
2013-04-01 10:48:00,59.1,46.9,29.74,SSW,200,6.0,13.0,64,0.00,,,0.00,Wunderground v.1.15,2013-04-01 14:48:00,
2013-04-01 10:53:00,59.9,47.7,29.74,West,260,5.0,13.0,64,0.00,,,0.00,Wunderground v.1.15,2013-04-01 14:53:00,
2013-04-01 10:58:00,60.5,47.0,29.74,WSW,255,5.0,13.0,61,0.00,,,0.00,Wunderground v.1.15,2013-04-01 14:58:00,
2013-04-01 11:08:00,60.4,46.9,29.74,SW,222,6.0,6.0,61,0.00,,,0.00,Wunderground v.1.15,2013-04-01 15:08:00,
2013-04-01 11:13:00,60.9,47.4,29.74,WSW,246,5.0,13.0,61,0.00,,,0.00,Wunderground v.1.15,2013-04-01 15:13:00,
2013-04-01 11:18:00,61.2,48.1,29.74,West,274,4.0,4.0,62,0.00,,,0.00,Wunderground v.1.15,2013-04-01 15:18:00,
2013-04-01 11:23:00,61.6,47.6,29.74,WSW,246,4.0,9.0,60,0.00,,,0.00,Wunderground v.1.15,2013-04-01 15:23:00,
2013-04-01 11:28:00,61.5,47.0,29.73,WNW,287,6.0,6.0,59,0.00,,,0.00,Wunderground v.1.15,2013-04-01 15:28:00,
2013-04-01 11:33:00,62.2,47.7,29.73,West,267,6.0,13.0,59,0.00,,,0.00,Wunderground v.1.15,2013-04-01 15:33:00,
2013-04-01 11:43:00,62.5,46.6,29.73,West,263,5.0,7.0,56,0.00,,,0.00,Wunderground v.1.15,2013-04-01 15:43:00,
2013-04-01 11:48:00,62.6,46.7,29.73,WSW,250,6.0,6.0,56,0.00,,,0.00,Wunderground v.1.15,2013-04-01 15:48:00,
2013-04-01 11:53:00,62.0,46.6,29.73,WNW,290,7.0,8.0,57,0.00,,,0.00,Wunderground v.1.15,2013-04-01 15:53:00,
2013-04-01 11:58:00,62.5,46.6,29.73,WSW,253,7.0,7.0,56,0.00,,,0.00,Wunderground v.1.15,2013-04-01 15:58:00,
2013-04-01 12:08:00,62.2,45.8,29.72,West,261,6.0,13.0,55,0.00,,,0.00,Wunderground v.1.15,2013-04-01 16:08:00,
2013-04-01 12:13:00,61.8,45.0,29.72,West,262,7.0,13.0,54,0.00,,,0.00,Wunderground v.1.15,2013-04-01 16:13:00,
2013-04-01 12:18:00,61.8,45.0,29.72,WNW,297,7.0,7.0,54,0.00,,,0.00,Wunderground v.1.15,2013-04-01 16:18:00,
2013-04-01 12:23:00,62.3,45.9,29.72,West,277,7.0,9.0,55,0.00,,,0.00,Wunderground v.1.15,2013-04-01 16:23:00,
2013-04-01 12:28:00,62.8,44.9,29.71,WSW,257,7.0,13.0,52,0.00,,,0.00,Wunderground v.1.15,2013-04-01 16:28:00,
2013-04-01 12:33:00,62.9,45.0,29.71,WSW,251,7.0,13.0,52,0.00,,,0.00,Wunderground v.1.15,2013-04-01 16:33:00,
2013-04-01 12:38:00,62.9,44.5,29.71,West,269,7.0,13.0,51,0.00,,,0.00,Wunderground v.1.15,2013-04-01 16:38:00,
2013-04-01 12:43:00,62.7,44.8,29.70,West,260,7.0,13.0,52,0.00,,,0.00,Wunderground v.1.15,2013-04-01 16:43:00,
2013-04-01 12:48:00,63.4,44.9,29.70,WNW,293,7.0,13.0,51,0.00,,,0.00,Wunderground v.1.15,2013-04-01 16:48:00,
2013-04-01 12:53:00,63.6,45.1,29.70,NW,319,6.0,13.0,51,0.00,,,0.00,Wunderground v.1.15,2013-04-01 16:53:00,
2013-04-01 12:58:00,63.5,44.5,29.70,SW,215,6.0,13.0,50,0.00,,,0.00,Wunderground v.1.15,2013-04-01 16:58:00,
2013-04-01 13:05:00,63.3,44.3,29.69,West,261,5.0,13.0,50,0.00,,,0.00,Wunderground v.1.15,2013-04-01 17:05:00,
2013-04-01 13:10:00,63.5,44.0,29.69,WSW,246,6.0,13.0,49,0.00,,,0.00,Wunderground v.1.15,2013-04-01 17:10:00,
2013-04-01 13:15:00,63.2,43.7,29.69,SW,227,7.0,13.0,49,0.00,,,0.00,Wunderground v.1.15,2013-04-01 17:15:00,
2013-04-01 13:25:00,64.5,44.9,29.69,SW,233,5.0,12.0,49,0.00,,,0.00,Wunderground v.1.15,2013-04-01 17:25:00,
2013-04-01 13:30:00,64.5,44.4,29.69,WSW,252,5.0,5.0,48,0.00,,,0.00,Wunderground v.1.15,2013-04-01 17:30:00,
2013-04-01 13:40:00,65.0,43.7,29.68,WSW,258,6.0,6.0,46,0.00,,,0.00,Wunderground v.1.15,2013-04-01 17:40:00,
2013-04-01 13:45:00,64.9,43.6,29.68,West,269,6.0,13.0,46,0.00,,,0.00,Wunderground v.1.15,2013-04-01 17:45:00,
2013-04-01 13:55:00,64.7,43.4,29.68,WNW,300,6.0,13.0,46,0.00,,,0.00,Wunderground v.1.15,2013-04-01 17:55:00,
2013-04-01 14:00:00,64.6,43.9,29.68,SW,226,6.0,13.0,47,0.00,,,0.00,Wunderground v.1.15,2013-04-01 18:00:00,
2013-04-01 14:05:00,64.7,44.0,29.67,WNW,289,5.0,13.0,47,0.00,,,0.00,Wunderground v.1.15,2013-04-01 18:05:00,
2013-04-01 14:10:00,65.0,44.3,29.67,West,271,5.0,5.0,47,0.00,,,0.00,Wunderground v.1.15,2013-04-01 18:10:00,
2013-04-01 14:15:00,65.7,44.9,29.67,WNW,297,5.0,13.0,47,0.00,,,0.00,Wunderground v.1.15,2013-04-01 18:15:00,
2013-04-01 14:20:00,66.4,44.4,29.67,West,279,5.0,5.0,45,0.00,,,0.00,Wunderground v.1.15,2013-04-01 18:20:00,
2013-04-01 14:25:00,65.4,42.9,29.67,SW,228,6.0,8.0,44,0.00,,,0.00,Wunderground v.1.15,2013-04-01 18:25:00,
2013-04-01 14:35:00,64.5,42.7,29.67,West,265,7.0,13.0,45,0.00,,,0.00,Wunderground v.1.15,2013-04-01 18:35:00,
2013-04-01 14:45:00,64.3,42.5,29.67,WNW,288,7.0,13.0,45,0.00,,,0.00,Wunderground v.1.15,2013-04-01 18:45:00,
2013-04-01 14:50:00,64.3,41.9,29.67,WNW,286,7.0,13.0,44,0.00,,,0.00,Wunderground v.1.15,2013-04-01 18:50:00,
2013-04-01 14:55:00,63.7,41.9,29.67,West,275,6.0,13.0,45,0.00,,,0.00,Wunderground v.1.15,2013-04-01 18:55:00,
2013-04-01 15:00:00,63.3,41.6,29.67,WSW,238,5.0,5.0,45,0.00,,,0.00,Wunderground v.1.15,2013-04-01 19:00:00,
2013-04-01 15:05:00,63.1,41.4,29.67,WSW,243,5.0,13.0,45,0.00,,,0.00,Wunderground v.1.15,2013-04-01 19:05:00,
2013-04-01 15:10:00,63.0,41.3,29.67,West,281,5.0,5.0,45,0.00,,,0.00,Wunderground v.1.15,2013-04-01 19:10:00,
2013-04-01 15:15:00,63.0,42.4,29.67,West,268,5.0,8.0,47,0.00,,,0.00,Wunderground v.1.15,2013-04-01 19:15:00,
2013-04-01 15:20:00,62.9,41.2,29.66,WNW,288,5.0,5.0,45,0.00,,,0.00,Wunderground v.1.15,2013-04-01 19:20:00,
2013-04-01 15:25:00,62.8,41.7,29.66,West,259,5.0,13.0,46,0.00,,,0.00,Wunderground v.1.15,2013-04-01 19:25:00,
2013-04-01 15:30:00,62.6,42.1,29.66,West,281,4.0,4.0,47,0.00,,,0.00,Wunderground v.1.15,2013-04-01 19:30:00,
2013-04-01 15:35:00,62.5,42.0,29.66,West,275,4.0,5.0,47,0.00,,,0.00,Wunderground v.1.15,2013-04-01 19:35:00,
2013-04-01 15:40:00,62.4,41.9,29.66,WNW,286,5.0,5.0,47,0.00,,,0.00,Wunderground v.1.15,2013-04-01 19:40:00,
2013-04-01 15:50:00,62.1,41.6,29.67,NW,312,6.0,13.0,47,0.00,,,0.00,Wunderground v.1.15,2013-04-01 19:50:00,
2013-04-01 15:55:00,61.7,42.3,29.67,WSW,239,9.0,13.0,49,0.00,,,0.00,Wunderground v.1.15,2013-04-01 19:55:00,
2013-04-01 16:00:00,61.3,41.4,29.67,NW,308,10.0,10.0,48,0.00,,,0.00,Wunderground v.1.15,2013-04-01 20:00:00,
2013-04-01 16:05:00,61.8,41.9,29.68,WNW,296,9.0,13.0,48,0.00,,,0.00,Wunderground v.1.15,2013-04-01 20:05:00,
2013-04-01 16:10:00,62.2,42.3,29.68,West,274,8.0,8.0,48,0.00,,,0.00,Wunderground v.1.15,2013-04-01 20:10:00,
2013-04-01 16:15:00,62.2,42.3,29.68,West,263,9.0,9.0,48,0.00,,,0.00,Wunderground v.1.15,2013-04-01 20:15:00,
2013-04-01 16:20:00,61.7,41.8,29.68,WNW,300,10.0,10.0,48,0.00,,,0.00,Wunderground v.1.15,2013-04-01 20:20:00,
2013-04-01 16:25:00,61.0,41.7,29.69,NW,309,10.0,11.0,49,0.00,,,0.00,Wunderground v.1.15,2013-04-01 20:25:00,
2013-04-01 16:30:00,60.5,41.2,29.69,NW,315,11.0,13.0,49,0.00,,,0.00,Wunderground v.1.15,2013-04-01 20:30:00,
2013-04-01 16:35:00,59.8,41.6,29.69,NW,319,11.0,13.0,51,0.00,,,0.00,Wunderground v.1.15,2013-04-01 20:35:00,
2013-04-01 16:45:00,58.0,40.5,29.71,WNW,292,12.0,14.0,52,0.00,,,0.00,Wunderground v.1.15,2013-04-01 20:45:00,
2013-04-01 16:50:00,57.2,40.7,29.72,North,355,11.0,17.0,54,0.00,,,0.00,Wunderground v.1.15,2013-04-01 20:50:00,
2013-04-01 16:55:00,56.4,39.5,29.73,WNW,284,12.0,17.0,53,0.00,,,0.00,Wunderground v.1.15,2013-04-01 20:55:00,
2013-04-01 17:05:00,54.4,39.0,29.74,NW,307,13.0,16.0,56,0.00,,,0.00,Wunderground v.1.15,2013-04-01 21:05:00,
2013-04-01 17:10:00,53.2,39.7,29.75,WNW,290,12.0,17.0,60,0.00,,,0.00,Wunderground v.1.15,2013-04-01 21:10:00,
2013-04-01 17:15:00,52.3,38.8,29.75,NW,311,13.0,17.0,60,0.00,,,0.00,Wunderground v.1.15,2013-04-01 21:15:00,
2013-04-01 17:20:00,51.4,38.4,29.76,WNW,294,14.0,14.0,61,0.00,,,0.00,Wunderground v.1.15,2013-04-01 21:20:00,
2013-04-01 17:25:00,51.0,38.4,29.76,NW,309,12.0,14.0,62,0.00,,,0.00,Wunderground v.1.15,2013-04-01 21:25:00,
2013-04-01 17:30:00,50.7,39.0,29.77,West,273,10.0,13.0,64,0.00,,,0.00,Wunderground v.1.15,2013-04-01 21:30:00,
2013-04-01 17:35:00,50.3,38.6,29.77,SW,236,10.0,13.0,64,0.00,,,0.00,Wunderground v.1.15,2013-04-01 21:35:00,
2013-04-01 17:40:00,50.2,38.9,29.76,WNW,298,9.0,13.0,65,0.00,,,0.00,Wunderground v.1.15,2013-04-01 21:40:00,
2013-04-01 17:45:00,50.2,38.1,29.76,WNW,297,9.0,13.0,63,0.00,,,0.00,Wunderground v.1.15,2013-04-01 21:45:00,
2013-04-01 17:55:00,50.5,38.4,29.76,NW,315,8.0,13.0,63,0.00,,,0.00,Wunderground v.1.15,2013-04-01 21:55:00,
2013-04-01 18:00:00,50.8,38.2,29.76,WNW,288,8.0,8.0,62,0.00,,,0.00,Wunderground v.1.15,2013-04-01 22:00:00,
2013-04-01 18:05:00,51.0,38.4,29.76,WNW,303,5.0,13.0,62,0.00,,,0.00,Wunderground v.1.15,2013-04-01 22:05:00,
2013-04-01 18:10:00,51.0,37.2,29.77,NW,318,5.0,13.0,59,0.00,,,0.00,Wunderground v.1.15,2013-04-01 22:10:00,
2013-04-01 18:15:00,50.7,36.9,29.78,WSW,257,7.0,13.0,59,0.00,,,0.00,Wunderground v.1.15,2013-04-01 22:15:00,
2013-04-01 18:20:00,50.5,37.1,29.78,WNW,297,7.0,7.0,60,0.00,,,0.00,Wunderground v.1.15,2013-04-01 22:20:00,
2013-04-01 18:25:00,50.4,37.4,29.78,NW,321,5.0,13.0,61,0.00,,,0.00,Wunderground v.1.15,2013-04-01 22:25:00,
2013-04-01 18:30:00,50.4,37.0,29.78,WNW,285,4.0,13.0,60,0.00,,,0.00,Wunderground v.1.15,2013-04-01 22:30:00,
2013-04-01 18:35:00,50.4,37.0,29.78,NW,315,5.0,13.0,60,0.00,,,0.00,Wunderground v.1.15,2013-04-01 22:35:00,
2013-04-01 18:40:00,50.5,37.1,29.78,NW,319,3.0,3.0,60,0.00,,,0.00,Wunderground v.1.15,2013-04-01 22:40:00,
2013-04-01 18:45:00,50.5,38.4,29.78,NNW,335,3.0,13.0,63,0.00,,,0.00,Wunderground v.1.15,2013-04-01 22:45:00,
2013-04-01 18:50:00,50.2,39.3,29.78,NNE,17,3.0,13.0,66,0.00,,,0.00,Wunderground v.1.15,2013-04-01 22:50:00,
2013-04-01 19:00:00,49.1,39.4,29.78,NNE,29,2.0,13.0,69,0.00,,,0.00,Wunderground v.1.15,2013-04-01 23:00:00,
2013-04-01 19:05:00,48.8,39.4,29.78,North,355,2.0,13.0,70,0.00,,,0.00,Wunderground v.1.15,2013-04-01 23:05:00,
2013-04-01 19:10:00,48.5,39.5,29.78,North,355,1.0,13.0,71,0.00,,,0.00,Wunderground v.1.15,2013-04-01 23:10:00,
2013-04-01 19:15:00,48.1,39.5,29.79,NNE,15,2.0,13.0,72,0.00,,,0.00,Wunderground v.1.15,2013-04-01 23:15:00,
2013-04-01 19:20:00,47.7,39.1,29.79,NNE,17,4.0,4.0,72,0.00,,,0.00,Wunderground v.1.15,2013-04-01 23:20:00,
2013-04-01 19:25:00,47.4,39.2,29.79,NW,321,3.0,13.0,73,0.00,,,0.00,Wunderground v.1.15,2013-04-01 23:25:00,
2013-04-01 19:30:00,47.2,39.0,29.79,NNW,346,2.0,2.0,73,0.00,,,0.00,Wunderground v.1.15,2013-04-01 23:30:00,
2013-04-01 19:35:00,47.0,38.8,29.80,NNW,346,1.0,13.0,73,0.00,,,0.00,Wunderground v.1.15,2013-04-01 23:35:00,
2013-04-01 19:40:00,46.8,38.6,29.80,NNW,336,1.0,1.0,73,0.00,,,0.00,Wunderground v.1.15,2013-04-01 23:40:00,
2013-04-01 19:50:00,46.5,37.6,29.81,NW,319,2.0,2.0,71,0.00,,,0.00,Wunderground v.1.15,2013-04-01 23:50:00,
2013-04-01 20:00:00,46.5,33.8,29.81,WNW,298,4.0,13.0,61,0.00,,,0.00,Wunderground v.1.15,2013-04-02 00:00:00,
2013-04-01 20:05:00,47.0,31.2,29.82,NNW,331,6.0,13.0,54,0.00,,,0.00,Wunderground v.1.15,2013-04-02 00:05:00,
2013-04-01 20:10:00,47.6,29.4,29.82,WNW,303,6.0,13.0,49,0.00,,,0.00,Wunderground v.1.15,2013-04-02 00:10:00,
2013-04-01 20:15:00,47.8,27.5,29.83,WNW,297,7.0,13.0,45,0.00,,,0.00,Wunderground v.1.15,2013-04-02 00:15:00,
2013-04-01 20:20:00,48.1,26.6,29.83,NNW,338,7.0,13.0,43,0.00,,,0.00,Wunderground v.1.15,2013-04-02 00:20:00,
2013-04-01 20:25:00,48.1,25.5,29.83,WNW,286,7.0,13.0,41,0.00,,,0.00,Wunderground v.1.15,2013-04-02 00:25:00,
2013-04-01 20:30:00,48.1,24.3,29.84,NW,307,7.0,7.0,39,0.00,,,0.00,Wunderground v.1.15,2013-04-02 00:30:00,
2013-04-01 20:40:00,47.8,22.1,29.84,WNW,286,7.0,7.0,36,0.00,,,0.00,Wunderground v.1.15,2013-04-02 00:40:00,
2013-04-01 20:45:00,47.8,22.1,29.84,West,281,8.0,8.0,36,0.00,,,0.00,Wunderground v.1.15,2013-04-02 00:45:00,
2013-04-01 20:50:00,47.7,21.3,29.85,West,279,8.0,13.0,35,0.00,,,0.00,Wunderground v.1.15,2013-04-02 00:50:00,
2013-04-01 20:55:00,47.7,22.0,29.85,West,261,8.0,13.0,36,0.00,,,0.00,Wunderground v.1.15,2013-04-02 00:55:00,
2013-04-01 21:00:00,47.5,21.2,29.86,West,273,7.0,13.0,35,0.00,,,0.00,Wunderground v.1.15,2013-04-02 01:00:00,
2013-04-01 21:05:00,47.3,21.0,29.86,West,281,7.0,13.0,35,0.00,,,0.00,Wunderground v.1.15,2013-04-02 01:05:00,
2013-04-01 21:10:00,47.2,20.9,29.86,WNW,300,7.0,7.0,35,0.00,,,0.00,Wunderground v.1.15,2013-04-02 01:10:00,
2013-04-01 21:15:00,47.1,20.8,29.86,NW,315,7.0,13.0,35,0.00,,,0.00,Wunderground v.1.15,2013-04-02 01:15:00,
2013-04-01 21:20:00,46.9,20.6,29.87,WNW,298,6.0,6.0,35,0.00,,,0.00,Wunderground v.1.15,2013-04-02 01:20:00,
2013-04-01 21:25:00,46.7,20.5,29.87,WNW,303,5.0,13.0,35,0.00,,,0.00,Wunderground v.1.15,2013-04-02 01:25:00,
2013-04-01 21:30:00,46.5,20.9,29.88,NW,306,4.0,13.0,36,0.00,,,0.00,Wunderground v.1.15,2013-04-02 01:30:00,
2013-04-01 21:35:00,46.2,20.7,29.88,NW,313,3.0,13.0,36,0.00,,,0.00,Wunderground v.1.15,2013-04-02 01:35:00,
2013-04-01 21:40:00,46.0,20.5,29.89,NW,323,4.0,13.0,36,0.00,,,0.00,Wunderground v.1.15,2013-04-02 01:40:00,
2013-04-01 21:45:00,45.8,21.6,29.89,NW,323,5.0,13.0,38,0.00,,,0.00,Wunderground v.1.15,2013-04-02 01:45:00,
2013-04-01 21:50:00,45.6,22.6,29.90,NW,322,7.0,13.0,40,0.00,,,0.00,Wunderground v.1.15,2013-04-02 01:50:00,
2013-04-01 21:55:00,45.3,22.4,29.90,NNE,12,9.0,13.0,40,0.00,,,0.00,Wunderground v.1.15,2013-04-02 01:55:00,
2013-04-01 22:05:00,44.5,22.8,29.91,North,5,7.0,13.0,42,0.00,,,0.00,Wunderground v.1.15,2013-04-02 02:05:00,
2013-04-01 22:10:00,44.0,22.4,29.91,NNW,340,7.0,13.0,42,0.00,,,0.00,Wunderground v.1.15,2013-04-02 02:10:00,
2013-04-01 22:15:00,43.6,22.5,29.91,NNW,336,7.0,13.0,43,0.00,,,0.00,Wunderground v.1.15,2013-04-02 02:15:00,
2013-04-01 22:20:00,43.4,21.8,29.92,North,5,7.0,15.0,42,0.00,,,0.00,Wunderground v.1.15,2013-04-02 02:20:00,
2013-04-01 22:25:00,43.1,22.1,29.92,NNW,348,7.0,15.0,43,0.00,,,0.00,Wunderground v.1.15,2013-04-02 02:25:00,
2013-04-01 22:30:00,42.8,21.3,29.92,WNW,300,7.0,13.0,42,0.00,,,0.00,Wunderground v.1.15,2013-04-02 02:30:00,
2013-04-01 22:35:00,42.6,20.5,29.92,NNW,331,7.0,13.0,41,0.00,,,0.00,Wunderground v.1.15,2013-04-02 02:35:00,
2013-04-01 22:40:00,42.5,19.8,29.93,North,5,7.0,13.0,40,0.00,,,0.00,Wunderground v.1.15,2013-04-02 02:40:00,
2013-04-01 22:45:00,42.2,19.6,29.93,NNW,348,6.0,13.0,40,0.00,,,0.00,Wunderground v.1.15,2013-04-02 02:45:00,
2013-04-01 22:50:00,42.0,19.4,29.93,NNW,331,6.0,13.0,40,0.00,,,0.00,Wunderground v.1.15,2013-04-02 02:50:00,
2013-04-01 22:55:00,41.9,18.1,29.94,NNE,32,7.0,13.0,38,0.00,,,0.00,Wunderground v.1.15,2013-04-02 02:55:00,
2013-04-01 23:00:00,41.6,17.8,29.94,NNW,327,8.0,8.0,38,0.00,,,0.00,Wunderground v.1.15,2013-04-02 03:00:00,
2013-04-01 23:10:00,41.2,17.5,29.94,North,5,5.0,5.0,38,0.00,,,0.00,Wunderground v.1.15,2013-04-02 03:10:00,
2013-04-01 23:15:00,41.0,18.5,29.94,NNW,346,5.0,6.0,40,0.00,,,0.00,Wunderground v.1.15,2013-04-02 03:15:00,
2013-04-01 23:20:00,40.8,17.1,29.94,NW,308,5.0,13.0,38,0.00,,,0.00,Wunderground v.1.15,2013-04-02 03:20:00,
2013-04-01 23:25:00,40.6,16.3,29.95,NNW,338,5.0,13.0,37,0.00,,,0.00,Wunderground v.1.15,2013-04-02 03:25:00,
2013-04-01 23:30:00,40.4,16.8,29.95,NW,324,4.0,4.0,38,0.00,,,0.00,Wunderground v.1.15,2013-04-02 03:30:00,
2013-04-01 23:35:00,40.2,17.2,29.95,NW,320,4.0,13.0,39,0.00,,,0.00,Wunderground v.1.15,2013-04-02 03:35:00,
2013-04-01 23:40:00,40.0,17.0,29.95,North,11,5.0,13.0,39,0.00,,,0.00,Wunderground v.1.15,2013-04-02 03:40:00,
2013-04-01 23:45:00,39.9,17.5,29.95,NW,318,5.0,13.0,40,0.00,,,0.00,Wunderground v.1.15,2013-04-02 03:45:00,
2013-04-01 23:50:00,39.7,17.3,29.95,NE,44,4.0,13.0,40,0.00,,,0.00,Wunderground v.1.15,2013-04-02 03:50:00,
2013-04-01 23:55:00,39.4,17.0,29.95,NNW,342,3.0,13.0,40,0.00,,,0.00,Wunderground v.1.15,2013-04-02 03:55:00,